PROBA-1 1 26958U 01049B 25346.96048230 .00004951 00000+0 32803-3 0 9993 2 26958 97.9587 344.1325 0057016 33.5272 326.9542 15.06452684315573 CUTE-1 (CO-55) 1 27844U 03031E 25347.01153825 .00000577 00000+0 26952-3 0 9993 2 27844 98.6765 352.9111 0009774 12.6791 347.4632 14.24179528165175 CUBESAT XI-IV (CO-57) 1 27848U 03031J 25346.97818520 .00000480 00000+0 23011-3 0 9997 2 27848 98.6792 352.7398 0009978 30.1158 330.0593 14.23487467164886 APRIZESAT 4 1 35684U 09041D 25346.98903718 .00001650 00000+0 20447-3 0 9996 2 35684 98.1643 53.4597 0043065 203.8257 156.0964 14.83494041883757 APRIZESAT 3 1 35686U 09041F 25346.87346667 .00003400 00000+0 30209-3 0 9992 2 35686 98.1787 126.5863 0061720 323.1987 36.5002 14.95420363888524 PROBA-2 1 36037U 09059B 25346.98765670 .00000546 00000+0 13806-3 0 9995 2 36037 98.2373 167.9652 0014008 132.5009 227.7374 14.54711828854451 APRIZESAT 5 1 37792U 11044E 25346.71768968 .00002171 00000+0 28444-3 0 9995 2 37792 98.2354 269.6618 0051384 242.5453 117.0528 14.80574030771196 APRIZESAT 6 1 37793U 11044F 25347.00961343 .00001725 00000+0 25175-3 0 9993 2 37793 98.2459 248.6406 0042711 323.0779 50.8942 14.76536866769679 PROBA-V 1 39159U 13021A 25346.93187353 .00000154 00000+0 85517-4 0 9992 2 39159 98.3390 329.9523 0003545 333.2626 26.8371 14.23547600654617 APRIZESAT 7 1 39416U 13066A 25346.82277782 .00003047 00000+0 31048-3 0 9994 2 39416 97.7469 298.0857 0037831 108.2504 252.2837 14.90902463653458 APRIZESAT 8 1 39425U 13066K 25346.79755180 .00002282 00000+0 25542-3 0 9995 2 39425 97.8000 292.1951 0046378 177.3054 182.8421 14.87113475651967 BUGSAT-1 (TITA) 1 40014U 14033E 25346.98608789 .00005789 00000+0 32563-3 0 9995 2 40014 98.0558 63.8972 0030751 95.8215 264.6522 15.13291890627659 SAUDISAT 4 1 40016U 14033G 25346.98130003 .00001301 00000+0 17948-3 0 9992 2 40016 97.7298 134.9155 0044242 320.8909 38.9107 14.79170408618543 APRIZESAT 9 1 40018U 14033J 25346.94357051 .00001214 00000+0 18614-3 0 9998 2 40018 97.8791 120.0568 0067864 79.3896 281.4947 14.73887497616120 APRIZESAT 10 1 40019U 14033K 25346.92005157 .00001381 00000+0 22444-3 0 9995 2 40019 97.9409 113.3752 0079869 147.8807 212.7302 14.70597194614870 TECHDEMOSAT-1 (TDS-1) 1 40076U 14037H 25346.87757491 .00015021 00000+0 94069-3 0 9999 2 40076 98.3665 316.3428 0006967 162.6032 197.5435 15.09474240620087 TECHNOSAT 1 42829U 17042E 25346.99468847 .00006362 00000+0 47010-3 0 9995 2 42829 97.4046 147.1891 0018435 12.7047 347.4640 15.03417538458710 FLYING LAPTOP 1 42831U 17042G 25347.00218980 .00005555 00000+0 45109-3 0 9992 2 42831 97.4235 145.6103 0014984 48.2761 311.9742 14.99913903458534 HAWK-A 1 43765U 18099H 25346.71981608 .00011829 00000+0 51794-3 0 9991 2 43765 97.4215 36.4694 0036213 218.9013 140.9617 15.21581288384718 HAWK-B 1 43794U 18099AN 25346.73010620 .00010005 00000+0 46038-3 0 9992 2 43794 97.4264 36.2524 0032707 235.4506 124.3641 15.20042903384683 HAWK-C 1 43799U 18099AT 25346.88943573 .00013851 00000+0 55120-3 0 9999 2 43799 97.4195 36.7059 0042786 222.0312 137.7641 15.24514470385499 SALSAT 1 46495U 20068K 25346.92502343 .00012633 00000+0 48868-3 0 9993 2 46495 97.8788 334.2073 0008929 228.5095 131.5376 15.26328110286919 HAWK-2C 1 47502U 21006CT 25347.02867255 .00010836 00000+0 35620-3 0 9999 2 47502 97.2567 30.1260 0008372 138.8397 221.3478 15.31679701270979 HAWK-2A 1 47505U 21006CW 25346.70511921 .00014927 00000+0 48984-3 0 9994 2 47505 97.2611 30.3777 0007773 142.6867 217.4916 15.31664229270923 HAWK-2B 1 47508U 21006CZ 25347.02901634 .00011175 00000+0 36726-3 0 9990 2 47508 97.2482 29.3421 0008602 139.7968 220.3911 15.31678646270978 HAWK-3B 1 48931U 21059BE 25346.98052285 .00036686 00000+0 54448-3 0 9997 2 48931 97.6698 163.1720 0005333 299.3536 60.7185 15.55116736248789 HAWK-3C 1 48948U 21059BX 25346.98028965 .00035354 00000+0 52475-3 0 9992 2 48948 97.6866 168.4813 0005875 300.5190 59.5483 15.55118949248782 HAWK-3A 1 48957U 21059CG 25346.98012348 .00036709 00000+0 54478-3 0 9990 2 48957 97.6791 165.8537 0005435 298.9625 61.1083 15.55117975248781 HAWK-5C 1 52754U 22057Y 25346.96357568 .00022509 00000+0 50112-3 0 9997 2 52754 97.6368 131.0207 0006027 33.3965 326.7661 15.43622900197541 HAWK-5B 1 52756U 22057AA 25346.96340265 .00022292 00000+0 49633-3 0 9990 2 52756 97.6352 129.3777 0006115 29.0257 331.1329 15.43621684197541 HAWK-5A 1 52757U 22057AB 25346.96313252 .00023043 00000+0 51292-3 0 9996 2 52757 97.6360 130.2009 0006354 31.0931 329.0692 15.43621341197546 HAWK-6B 1 55324U 23011A 25347.01776246 .00008464 00000+0 38582-3 0 9990 2 55324 40.5157 356.1072 0002869 201.7845 158.2842 15.20654395159475 HAWK-6C 1 55326U 23011C 25347.01715237 .00008747 00000+0 39841-3 0 9998 2 55326 40.4842 353.2104 0002382 190.8135 169.2623 15.20651759159482 HAWK-6A 1 55327U 23011D 25346.75446883 .00008506 00000+0 38777-3 0 9997 2 55327 40.5003 356.2264 0002105 197.3708 162.7029 15.20647195159447 HAWK-7A 1 56191U 23054P 25346.65455889 .00010706 00000+0 37684-3 0 9990 2 56191 97.2928 233.4270 0007820 6.7717 353.3627 15.29471025148555 HAWK-7B 1 56193U 23054R 25346.91614298 .00004377 00000+0 15571-3 0 9990 2 56193 97.2951 231.8800 0008038 16.3717 343.7782 15.29467529148596 HAWK-7C 1 56200U 23054Y 25346.91591083 .00009211 00000+0 32459-3 0 9991 2 56200 97.2929 232.7019 0007671 8.7302 351.4070 15.29477182148591